KOFP

Details ICAO KOFP
Name HANOVER CO MUNI
Region United States
Timezone America/New_York (UTC-4.0)
Plans Departing 1
Arriving 1
Stats Elevation 208 ft / 63 m (AMSL)
Location 37.708939° -77.436641°
Runways 1
Magnetic Variation 10.339° W
Sunrise 2017-03-30 10:58:53 UTC / 2017-03-30 06:58:53 Local
Sunset 2017-03-30 23:31:39 UTC / 2017-03-30 19:31:39 Local
Advertisement - Login to hide

Runways

ID Width Length Bearing (true) Bearing (mag) Surface Threshold Offset Overrun Length
16 100 ft / 30 m 5,406 ft / 1,648 m 149.81° 160.15° Asphalt 0 ft / 0 m 0 ft / 0 m
34 100 ft / 30 m 5,406 ft / 1,648 m 329.81° 340.15° Asphalt 0 ft / 0 m 0 ft / 0 m

Approach Navaids

Runway Type Ident Frequency Range Bearing (true) Bearing (mag) Slope Elevation
16 Localiser IOFP 109.70 MHz 18 nm / 33 km 150.00° 160.34° - 208 ft / 63 m (AMSL)
16 DME IOFP 109.70 MHz 18 nm / 33 km - - - 208 ft / 63 m (AMSL)

Map

Weather

Temperature
Clouds and Precipitation
Forecast for 2017-03-31 00:00 UTC. Updated an hour ago
Winds

METAR

KOFP 302154Z AUTO VRB06KT 10SM OVC050 13/04 A3007 RMK AO2 SLP183 T01330044

TAF

Not found

Frequencies

Recorded 119.02 MHz ASOS
Clearance 125.40 MHz POTOMAC CLNC DEL
Departure 134.70 MHz POTOMAC DEP
Unicom 122.70 MHz CTAF/UNICOM
Approach 134.70 MHz POTOMAC APP
Warning: Do not use this data for real-world aviation or navigation. No guarantee of current accuracy is given.